STARLINK-32270, 60364

Orbit data source: Space-Track

STARLINK-32270, 60364 is a payload satellite owned by SpaceX/Seattle (US) in LEO that was launched on Sun, 04 Aug 2024 UTC via an FALCON 9 launch vehicle from the Air Force Western Test Range (AFWTR). Payload-class satellites include a variety of spacecraft equipped with specific instruments for various scientific and technological missions. These include communications satellites like Starlink; space stations such as the ISS; scientific satellites like the Hubble; Earth observation satellites from companies like Planet Labs, Umbra, and HawkEye 360; GPS; miniature CubeSats for education and research; and military/defense satellites.

Loading next visibility...
Identifier
60364, 2024-138K
Orbit
LEO
Last TLE update
9 hours ago
Origin
Manufacturer
SpaceX/Seattle
Mission
Operational Commercial Communications
Bus & Motor
STARLINK V2M, Unknown motor
Mass
730 kg wet, ~700 kg dry
Launch date (UTC)
2024-08-04 (11 months ago)
Launch vehicle
FALCON 9
Launch site
Air Force Western Test Range (AFWTR)
Object type
Payload
Rocket body
Debris
Shape & HBR
Box + 2 Pan, 29 m
Radar Cross Section
33.884 m², Large (>1 m²)

Expand to show TLE details & history

TLE from 9 hours ago
0 STARLINK-32270
1 60364U 24138K   25182.01626540 -.00000011  00000-0  11755-4 0  9995
2 60364  53.1609  38.7208 0000991  67.7438 292.3668 15.30196952 51965
Epoch: 2025-07-01T00:23Z
TLE epoch observation values (Epoch: 2025-07-01T00:23:25.33Z)
Latitude
-0.00001°
Longitude
113.54748°
Altitude
475.866 km
Speed
7.629 km/s
True Right ascension
02h 34m 52s
True Declination
0° 00' 00"
Sunlit
Object was in daylight at epoch
Visualization orbit readout
Latitude
-28.36596°
Longitude
-44.43236°
Altitude
484.312 km
Speed
7.623 km/s
Apparent Right ascension
12h 58m 48s
Apparent Declination
-48° 35' 48"
Sunlit
Object is in full shadow
Visualization observer readout
Local Sidereal Time
20:48:21
Azimuth
237.087° WSW
Elevation
-45.614°
Doppler factor
1
Orbital elements
Apogee altitude
476.16 km
Perigee altitude
474.801 km
Semi-major axis
6,853.617 km
Eccentricity
0.0001
Inclination
53.1609°
RAAN
38.7208°
Arg. of periapsis
67.7438°
True anomaly
Unknown
Mean anomaly
292.3668°
Eccentric anomaly
Unknown
Mean motion
3.82528 °/min
Orbital period
94.11 mins
BSTAR
0.000011755
Loading maneuver chart data...
Loading SW <> Apogee altitude chart data...
Loading historical data...
Loading historical data...
Loading historical data...
Loading historical data...
Loading historical data...
Loading historical data...
Loading historical data...

STARLINK-32270 Visibility forecast

Observer location: undefined°, undefined°

Span
Click to sort rows by Start time (UTC) header in descending order
Start Az.
Max El. time (UTC)
Max El. Az.
Max El.
End time (UTC)
End Az.
5 mins2025-07-01 16:13:07.434Z178.296° S2025-07-01 16:16:07.434Z117.502° SE20.339°2025-07-01 16:18:07.434Z81.556° E
5 mins2025-07-01 17:51:07.434Z262.014° W2025-07-01 17:53:07.434Z314.148° NW33.87°2025-07-01 17:56:07.434Z34.474° NE
4 mins2025-07-01 22:49:07.434Z358.197° N2025-07-01 22:50:07.434Z23.884° NE23.01°2025-07-01 22:53:07.434Z83.245° E
5 mins2025-07-02 00:26:07.434Z291.638° WNW2025-07-02 00:28:07.434Z236.707° WSW36.376°2025-07-02 00:31:07.434Z153.748° SSE
|